Regional Weather Roundup
Issued by NWS

Home | Current Version | Previous Version | Text Only | Print | Product List | Glossary Off
Versions: 1 2 3 4 5 6 7 8 9 10 11 12 13 14 15 16 17 18 19 20 21 22 23 24 25 26 27 28 29 30 31 32 33 34 35 36 37 38 39 40 41 42 43 44 45 46 47 48 49 50

000
ASUS43 KFSD 160602
RWRSD

WEATHER ROUNDUP FOR SOUTH DAKOTA
NATIONAL WEATHER SERVICE SIOUX FALLS SD
100 AM CDT MON OCT 16 2017

NOTE: "FAIR" INDICATES FEW OR NO CLOUDS BELOW 12,000 FEET WITH NO
SIGNIFICANT WEATHER AND/OR OBSTRUCTIONS TO VISIBILITY.


SDZ001>005-009-010-012>017-160700-
NORTHWEST AND NORTH CENTRAL SOUTH DAKOTA

CITY           SKY/WX    TMP DP  RH WIND       PRES   REMARKS
BUFFALO          N/A     40  27  59 SW7       30.12F
FAITH            N/A     37  28  70 S10       30.22F
MOBRIDGE       CLEAR     38  31  76 SE8       30.18F
$$

SDZ012>016-024>037-041>051-057-063-072>074-160700-
SOUTHWEST AND SOUTH CENTRAL SOUTH DAKOTA

CITY           SKY/WX    TMP DP  RH WIND       PRES   REMARKS
RAPID CTY ARPT CLEAR     39  28  64 CALM      30.25F
PIERRE         CLEAR     42  31  64 SW8       30.23F
CUSTER         CLEAR     38  22  52 W6        30.29F
ELLSWORTH AFB  CLEAR     44  28  55 S3        30.23F
PHILIP         CLEAR     35  31  85 NW3       30.25F
PINE RIDGE     CLEAR     30  27  88 CALM      30.28F
SPEARFISH      FAIR      43  28  56 CALM      30.23F
WINNER         FAIR      44  32  62 SW9       30.29F
$$

SDZ004>011-016>023-039-040-160700-
NORTHEAST SOUTH DAKOTA

CITY           SKY/WX    TMP DP  RH WIND       PRES   REMARKS
ABERDEEN       CLEAR     30  29  96 SW6       30.23S WCI  24
WATERTOWN      CLEAR     35  31  85 VRB3      30.22F
BROOKINGS      CLEAR     38  32  79 SW5       30.26S
SISSETON         N/A     39  32  76 W5        30.20S
$$

SDZ017-020-022-023-036>040-048>070-160700-
SOUTHEAST SOUTH DAKOTA

CITY           SKY/WX    TMP DP  RH WIND       PRES   REMARKS
SIOUX FALLS    CLEAR     41  35  79 CALM      30.28S
HURON          CLEAR     37  32  82 SW5       30.26S
CHAMBERLAIN    CLEAR     40  37  90 CALM      30.27F
MITCHELL       CLEAR     43  34  70 SW5       30.29S
YANKTON        CLEAR     40  34  79 CALM      30.30S
$$

ABBREVIATIONS USED IN REMARKS
   TC - TEMPERATURE IN CELSIUS
  WCI - WIND CHILL INDEX
   HX - HEAT INDEX
  VSB - VISIBILITY





USA.gov is the U.S. government's official web portal to all federal, state and local government web resources and services.